Location: Banios
(43.0451°N, 0.2335°E)
Time: 13:30:50
(UTC+00:00)

Cosmos 2369 Rocket - Pass Details

Date: 25 January 2021
Orbit: 830 x 851 km, 71.0° (Epoch: 25 February)

Event Time Altitude Azimuth Distance (km) Brightness Sun altitude
Exits shadow 05:30:03 - 345° (NNW) 3,201 5.0 -20.2°
Reaches altitude 10° 05:32:24 10° 357° (N) 2,450 4.5 -19.8°
Maximum altitude 05:36:58 25° 52° (NE) 1,626 4.1 -18.9°
Drops below altitude 10° 05:41:30 10° 107° (ESE) 2,434 5.9 -18.1°
Sets 05:44:22 0° 120° (ESE) 3,364 6.7 -17.6°
